When you browse on this site, cookies collect data to enhance your experience and personalize the content and advertising you see.
Visit our Privacy Policy to learn more. By continuing to use the site, you agree to this use of cookies and data.
  • In Czech Republic
  • List of Countries
  • For 7 days
  • Water Temperature
  • Satellite Maps
  • Weather Map
  • Weather Widgets
  • user-avatar
    Login

    Hourly Weather Prince George

    Today, 26 June, Wednesday

    Time Temperature Precipitation Wind Pressure Humidity
    00:00 +10°C° 0 mm 0 mps 699 mmHg 93%
    01:00 +9°C° 0 mm 0 mps 699 mmHg 95%
    02:00 +9°C° 0 mm 0 mps 699 mmHg 96%
    03:00 +8°C° 0 mm 0 mps 699 mmHg 96%
    04:00 +8°C° 0 mm 0 mps 699 mmHg 96%
    05:00 +10°C° 0 mm 0 mps 700 mmHg 89%
    06:00 +12°C° 0 mm 0 mps 700 mmHg 82%
    07:00 +15°C° 0 mm 1 mps 700 mmHg 75%
    08:00 +18°C° 0 mm 1 mps 700 mmHg 66%
    09:00 +20°C° 0 mm 1 mps 700 mmHg 58%
    10:00 +23°C° 0 mm 1 mps 700 mmHg 50%
    11:00 +24°C° 0 mm 1 mps 700 mmHg 45%
    12:00 +25°C° 0 mm 2 mps 700 mmHg 41%
    13:00 +26°C° 0 mm 2 mps 700 mmHg 36%
    14:00 +26°C° 0 mm 2 mps 700 mmHg 36%
    15:00 +26°C° 0 mm 2 mps 700 mmHg 36%
    16:00 +26°C° 0 mm 2 mps 700 mmHg 36%
    17:00 +25°C° 0 mm 2 mps 700 mmHg 42%
    18:00 +24°C° 0 mm 2 mps 700 mmHg 48%
    19:00 +23°C° 0 mm 2 mps 700 mmHg 53%
    20:00 +20°C° 0 mm 2 mps 700 mmHg 57%
    21:00 +17°C° 0 mm 2 mps 700 mmHg 60%
    22:00 +15°C° 0 mm 2 mps 700 mmHg 63%
    23:00 +14°C° 0 mm 2 mps 700 mmHg 68%

    Tomorrow, 27 June, Thursday

    Time Temperature Precipitation Wind Pressure Humidity
    00:00 +13°C° 0 mm 2 mps 700 mmHg 73%
    01:00 +12°C° 0 mm 2 mps 700 mmHg 78%
    02:00 +10°C° 0 mm 2 mps 700 mmHg 82%
    03:00 +10°C° 0 mm 2 mps 700 mmHg 85%
    04:00 +9°C° 0 mm 2 mps 700 mmHg 89%
    05:00 +12°C° 0 mm 2 mps 700 mmHg 82%
    06:00 +14°C° 0 mm 2 mps 700 mmHg 74%
    07:00 +16°C° 0 mm 2 mps 700 mmHg 67%
    08:00 +18°C° 0 mm 3 mps 700 mmHg 61%
    09:00 +20°C° 0 mm 3 mps 701 mmHg 55%
    10:00 +21°C° 0 mm 3 mps 701 mmHg 49%
    11:00 +24°C° 0 mm 3 mps 701 mmHg 45%
    12:00 +25°C° 0 mm 3 mps 701 mmHg 41%
    13:00 +26°C° 0 mm 3 mps 700 mmHg 37%
    14:00 +26°C° 0 mm 3 mps 700 mmHg 38%
    15:00 +26°C° 0 mm 4 mps 700 mmHg 39%
    16:00 +25°C° 0 mm 5 mps 699 mmHg 40%
    17:00 +23°C° 0 mm 4 mps 699 mmHg 46%
    18:00 +22°C° 0 mm 3 mps 699 mmHg 51%
    19:00 +21°C° 0 mm 2 mps 699 mmHg 57%
    20:00 +18°C° 0 mm 2 mps 699 mmHg 67%
    21:00 +16°C° 0 mm 2 mps 699 mmHg 78%
    22:00 +13°C° 0 mm 2 mps 699 mmHg 88%
    23:00 +13°C° 0.1 mm 1 mps 699 mmHg 89%

    Day after tomorrow, 28 June, Friday

    Time Temperature Precipitation Wind Pressure Humidity
    00:00 +13°C° 0.1 mm 1 mps 699 mmHg 90%
    01:00 +12°C° 0.1 mm 0 mps 699 mmHg 92%
    02:00 +11°C° 0.1 mm 0 mps 699 mmHg 93%
    03:00 +11°C° 0.1 mm 0 mps 699 mmHg 95%
    04:00 +10°C° 0.1 mm 0 mps 699 mmHg 97%
    05:00 +11°C° 0.2 mm 0 mps 699 mmHg 96%
    06:00 +12°C° 0.2 mm 0 mps 699 mmHg 96%
    07:00 +12°C° 0.2 mm 0 mps 699 mmHg 95%
    08:00 +12°C° 0.3 mm 0 mps 699 mmHg 96%
    09:00 +12°C° 0.3 mm 0 mps 699 mmHg 96%
    10:00 +14°C° 0.3 mm 1 mps 699 mmHg 96%
    11:00 +13°C° 0.5 mm 0 mps 700 mmHg 96%
    12:00 +13°C° 0.5 mm 0 mps 700 mmHg 95%
    13:00 +13°C° 0.5 mm 0 mps 700 mmHg 95%
    14:00 +15°C° 0.3 mm 1 mps 700 mmHg 92%
    15:00 +16°C° 0.3 mm 1 mps 700 mmHg 89%
    16:00 +16°C° 0.3 mm 2 mps 700 mmHg 87%
    17:00 +16°C° 0.1 mm 2 mps 700 mmHg 85%
    18:00 +16°C° 0.1 mm 1 mps 700 mmHg 83%
    19:00 +16°C° 0.1 mm 1 mps 700 mmHg 80%
    20:00 +14°C° 0 mm 1 mps 700 mmHg 84%
    21:00 +13°C° 0 mm 1 mps 700 mmHg 88%
    22:00 +10°C° 0 mm 0 mps 700 mmHg 91%
    23:00 +10°C° 0 mm 0 mps 700 mmHg 93%

    29 June, Saturday

    Time Temperature Precipitation Wind Pressure Humidity
    00:00 +9°C° 0 mm 0 mps 700 mmHg 94%
    01:00 +8°C° 0 mm 0 mps 700 mmHg 95%
    02:00 +8°C° 0 mm 0 mps 701 mmHg 96%
    03:00 +8°C° 0 mm 0 mps 701 mmHg 96%
    04:00 +7°C° 0 mm 0 mps 701 mmHg 97%
    05:00 +9°C° 0 mm 0 mps 701 mmHg 92%
    06:00 +11°C° 0 mm 0 mps 701 mmHg 87%
    07:00 +13°C° 0 mm 0 mps 702 mmHg 82%
    08:00 +16°C° 0 mm 1 mps 702 mmHg 72%
    09:00 +19°C° 0 mm 1 mps 702 mmHg 63%
    10:00 +21°C° 0 mm 1 mps 702 mmHg 54%
    11:00 +21°C° 0.2 mm 1 mps 702 mmHg 57%
    12:00 +20°C° 0.2 mm 2 mps 702 mmHg 59%
    13:00 +20°C° 0.2 mm 3 mps 702 mmHg 61%
    14:00 +20°C° 0.2 mm 3 mps 702 mmHg 61%
    15:00 +19°C° 0.2 mm 2 mps 702 mmHg 62%
    16:00 +19°C° 0.2 mm 2 mps 702 mmHg 62%
    17:00 +19°C° 0.1 mm 2 mps 702 mmHg 65%
    18:00 +18°C° 0.1 mm 2 mps 702 mmHg 69%
    19:00 +19°C° 0.1 mm 1 mps 702 mmHg 73%
    20:00 +16°C° 0 mm 1 mps 702 mmHg 79%
    21:00 +14°C° 0 mm 1 mps 702 mmHg 86%
    22:00 +12°C° 0 mm 1 mps 703 mmHg 93%
    23:00 +11°C° 0 mm 1 mps 703 mmHg 93%

    30 June, Sunday

    Time Temperature Precipitation Wind Pressure Humidity
    00:00 +11°C° 0 mm 1 mps 703 mmHg 94%
    01:00 +10°C° 0 mm 1 mps 703 mmHg 95%
    02:00 +11°C° 0 mm 1 mps 703 mmHg 95%
    03:00 +11°C° 0 mm 1 mps 703 mmHg 95%
    04:00 +11°C° 0 mm 1 mps 703 mmHg 95%
    05:00 +12°C° 0 mm 1 mps 704 mmHg 89%
    06:00 +14°C° 0 mm 1 mps 704 mmHg 83%
    07:00 +15°C° 0 mm 0 mps 704 mmHg 77%
    08:00 +19°C° 0 mm 1 mps 705 mmHg 68%
    09:00 +21°C° 0 mm 1 mps 705 mmHg 59%
    10:00 +24°C° 0 mm 1 mps 705 mmHg 51%
    11:00 +25°C° 0 mm 1 mps 705 mmHg 46%
    12:00 +26°C° 0 mm 1 mps 704 mmHg 42%
    13:00 +28°C° 0 mm 1 mps 704 mmHg 37%
    14:00 +27°C° 0 mm 1 mps 704 mmHg 36%
    15:00 +27°C° 0 mm 1 mps 703 mmHg 36%
    16:00 +25°C° 0 mm 0 mps 703 mmHg 35%
    17:00 +25°C° 0 mm 1 mps 703 mmHg 42%
    18:00 +24°C° 0 mm 1 mps 703 mmHg 48%
    19:00 +23°C° 0 mm 1 mps 702 mmHg 55%
    20:00 +20°C° 0 mm 2 mps 703 mmHg 60%
    21:00 +18°C° 0 mm 2 mps 703 mmHg 65%
    22:00 +16°C° 0 mm 2 mps 703 mmHg 70%
    23:00 +16°C° 0 mm 2 mps 703 mmHg 71%

    1 July, Monday

    Time Temperature Precipitation Wind Pressure Humidity
    00:00 +16°C° 0 mm 2 mps 703 mmHg 72%
    01:00 +15°C° 0 mm 2 mps 703 mmHg 74%
    02:00 +15°C° 0 mm 2 mps 703 mmHg 75%
    03:00 +15°C° 0 mm 2 mps 703 mmHg 77%
    04:00 +14°C° 0 mm 2 mps 703 mmHg 79%
    05:00 +15°C° 0 mm 2 mps 702 mmHg 76%
    06:00 +16°C° 0 mm 2 mps 702 mmHg 73%
    07:00 +17°C° 0 mm 2 mps 702 mmHg 69%
    08:00 +19°C° 0 mm 3 mps 702 mmHg 62%
    09:00 +21°C° 0 mm 3 mps 702 mmHg 54%
    10:00 +24°C° 0 mm 3 mps 702 mmHg 46%
    11:00 +25°C° 0 mm 3 mps 702 mmHg 42%
    12:00 +27°C° 0 mm 3 mps 702 mmHg 38%
    13:00 +28°C° 0 mm 3 mps 701 mmHg 33%
    14:00 +28°C° 0 mm 3 mps 701 mmHg 33%
    15:00 +28°C° 0 mm 3 mps 701 mmHg 33%
    16:00 +28°C° 0 mm 3 mps 701 mmHg 33%
    17:00 +27°C° 0 mm 3 mps 700 mmHg 40%
    18:00 +25°C° 0 mm 2 mps 700 mmHg 48%
    19:00 +23°C° 0 mm 2 mps 700 mmHg 56%
    20:00 +21°C° 0 mm 2 mps 700 mmHg 58%
    21:00 +19°C° 0 mm 2 mps 700 mmHg 60%
    22:00 +17°C° 0 mm 2 mps 700 mmHg 63%
    23:00 +16°C° 0 mm 2 mps 700 mmHg 65%
    Show more